date,batt_volt,AirTemp_C,Solar_kW,RH,Manual_BP,StationID,WS_ms,PTemp,WS_15min_max,Prog_Sig,Solar_Raw,Bar_mbar,Solar_MJ,Max_WS_2min,Pressure_Raw,Rain_mm,WD_15min_ave,Max_AirTemp_1min,WindDir,WS_15min_med,WS_15min_ave,Elevation_Correction
2021-07-01T00:06:23Z,13.16976,15.73993,0.000481876,95.2252,0,1156,3.4104,18.40363,4.6452,43690,0.03373132,1007.767,2.40938e-06,4.351,1005.966,0,114.820202959,15.88,113.5567,2.352,2.45898333333,1.80078
2021-07-01T00:21:21Z,13.16976,15.60447,0.000481941,95.63156,0,1156,2.2736,18.04667,4.8608,43690,0.03373587,1007.767,2.409705e-06,3.116,1005.966,0,112.104648169,15.74,114.7349,2.4696,2.50253727811,1.80078
2021-07-01T00:36:25Z,13.18079,15.6722,0.0004819569,95.83474,0,1156,1.4308,17.76652,3.7044,43690,0.03373698,1007.767,2.409785e-06,1.215,1005.966,0,121.207077899,15.71,117.7643,1.6856,1.79916470294,1.80078
2021-07-01T00:51:22Z,13.1863,15.50288,0.0,96.03794,0,1156,1.7248,17.53834,2.8616,43690,0.0,1007.767,0.0,2.254,1005.966,0,126.93768784,15.6,146.7606,1.617,1.60743333274,1.80078
2021-07-01T01:06:25Z,13.18682,15.50364,-0.0004820004,96.24242,0,1156,0.2548,17.31241,2.3716,43690,0.0,1008.174,-2.410002e-06,1.196,1006.373,0,127.057017764,15.54,132.9375,1.3328,1.28977277396,1.80078
2021-07-01T01:21:26Z,13.18704,15.37411,0.0,96.2866,0,1156,1.1172,17.18589,1.9012,43690,0.0,1008.174,0.0,1.901,1006.373,0,109.436267189,15.58,119.2213,0.7056,0.749207099408,1.80078
2021-07-01T01:36:28Z,13.19396,15.44406,0.0,96.49366,0,1156,0.9015999,17.06163,1.3132,43690,0.0,1008.174,0.0,0.392,1006.373,0,117.696705797,15.48,105.4951,0.686,0.698061524852,1.80078
2021-07-01T01:51:25Z,13.19405,16.22305,0.0,96.86622,0,1156,1.1564,16.98482,2.2736,43690,0.0,1008.174,0.0,2.176,1006.373,0,128.854269546,16.29,128.4602,1.6072,1.5900499994,1.80078
2021-07-01T02:06:26Z,13.18853,16.46059,0.0,96.83314,0,1156,1.47,17.03679,2.4304,43690,0.0,1008.028,0.0,2.313,1006.227,0,125.206279466,16.46,118.0247,1.5876,1.57611833787,1.80078
2021-07-01T02:21:28Z,13.18882,16.52762,0.0,97.00126,0,1156,1.1564,17.08649,2.9596,43690,0.0,1008.028,0.0,2.744,1006.227,0,125.47542103,16.49,116.941,1.7248,1.6800331355,1.80078
2021-07-01T02:36:29Z,13.18854,16.35884,0.0,96.96836,0,1156,0.9408,17.08649,3.3124,43690,0.0,1008.028,0.0,2.156,1006.227,0,133.83235859,16.36,126.6333,1.7836,1.82767100296,1.80078
2021-07-01T02:51:25Z,13.1888,16.22238,0.0,97.00054,0,1156,1.4112,17.06163,3.0184,43690,0.0,1008.028,0.0,2.391,1006.227,0,118.39506353,16.29,122.7595,1.8914,1.88976666667,1.80078
2021-07-01T03:06:28Z,13.18848,16.15554,0.0,97.06983,0,1156,2.0384,17.01194,2.45,43690,0.0,1007.365,0.0,1.882,1005.564,0,129.037652459,16.26,128.9657,1.1368,1.2129964355,1.80078
2021-07-01T03:21:25Z,13.18853,16.29189,0.0004820364,97.10521,0,1156,0.8624,16.98482,2.7636,43690,0.03374255,1007.365,2.410182e-06,0.647,1005.564,0,96.7214468436,16.29,37.22581,0.9995999,1.24354999464,1.80078
2021-07-01T03:36:29Z,13.18817,16.22421,0.0,97.17304,0,1156,0.4116,17.01194,1.176,43690,0.0,1007.365,0.0,0.431,1005.564,0,111.892970099,16.36,55.4059,0.4508,0.431315969822,1.80078
2021-07-01T03:51:25Z,13.18852,16.29131,-0.0004820386,97.17194,0,1156,1.6464,16.98482,1.5288,43690,0.0,1007.365,-2.410193e-06,1.392,1005.564,0,76.2198037464,16.29,77.40868,0.5684,0.609699995238,1.80078
2021-07-01T04:06:29Z,13.18814,16.19045,0.0,97.27484,0,1156,1.0976,16.95997,2.3912,43690,0.0,1006.147,0.0,1.921,1004.346,0,78.7242351619,16.26,97.44148,1.9208,1.77942485089,1.80078
2021-07-01T04:21:31Z,13.18869,16.15754,0.0,97.37813,0,1156,0.0196,16.98482,1.3524,43690,0.0,1006.147,0.0,0.412,1004.346,0,99.6163481906,16.39,73.51523,0.5096,0.520617742012,1.80078
2021-07-01T04:36:27Z,13.18831,16.39315,0.0,97.54491,0,1156,1.9796,17.03679,1.862,43690,0.0,1006.147,0.0,1.098,1004.346,0,121.52612911,16.43,111.4363,0.9604,0.802083325,1.80078
2021-07-01T04:51:28Z,13.18851,16.35901,0.0,97.61217,0,1156,0.8428,17.11134,2.3128,43690,0.0,1006.147,0.0,1.0,1004.346,0,90.2978187844,16.53,103.8848,0.6272,0.737377508284,1.80078
2021-07-01T05:06:29Z,13.18296,16.22239,0.0,97.54246,0,1156,0.0196,17.16105,2.6264,43690,0.0,1006.309,0.0,2.058,1004.508,0,89.0365100266,16.49,102.3678,1.2152,1.09226508698,1.80078
2021-07-01T05:21:31Z,13.18288,16.79815,0.0,97.94887,0,1156,2.6264,17.16105,3.1164,43690,0.0,1006.309,0.0,2.234,1004.508,0,77.3982748062,16.8,78.03226,1.7052,1.75646153728,1.80078
2021-07-01T05:36:32Z,13.18214,16.62695,0.0,97.94566,0,1156,2.4304,17.2356,3.3908,43690,0.0,1006.309,0.0,2.96,1004.508,0,78.6840351583,16.76,79.61674,2.4892,2.45568284024,1.80078
2021-07-01T05:51:31Z,13.1817,16.72587,0.0,98.11036,0,1156,1.372,17.31241,2.8224,43690,0.0,1006.309,0.0,2.019,1004.508,0,78.3570019282,16.79,79.42062,1.9012,1.81723313254,1.80078
2021-07-01T06:06:30Z,13.17624,16.62243,0.0,98.1749,0,1156,0.0196,17.36212,1.6464,43690,0.0,1005.355,0.0,0.02,1003.554,0,99.0037061791,16.72,123.8758,0.0196,0.396755026036,1.80078
2021-07-01T06:21:29Z,13.17545,16.89292,0.0,98.34347,0,1156,1.2152,17.41182,1.7444,43690,0.0,1005.355,0.0,1.744,1003.554,0,82.2650614816,17.03,77.542,1.0388,0.923403545562,1.80078
2021-07-01T06:36:29Z,13.17528,17.29785,0.0,98.44258,0,1156,0.8231999,17.43667,2.6264,43690,0.0,1005.355,0.0,1.372,1003.554,0,80.2912173748,17.3,87.7585,1.6464,1.60325679763,1.80078
2021-07-01T06:51:29Z,13.17528,17.06064,0.0,98.40845,0,1156,0.6468,17.53834,1.8228,43690,0.0,1005.355,0.0,1.313,1003.554,0,81.8853758726,17.26,83.16597,1.0388,1.00389111302,1.80078
2021-07-01T07:06:34Z,13.16976,17.09451,0.0,98.51004,0,1156,0.8231999,17.61515,2.156,43690,0.0,1004.761,0.0,1.705,1002.96,0,80.6139782685,17.26,87.58995,1.2152,1.18810587588,1.80078
2021-07-01T07:21:32Z,13.17528,16.92519,0.0,98.6455,0,1156,1.666,17.61515,2.352,43690,0.0,1004.761,0.0,1.803,1002.96,0,78.3202460701,16.89,79.00647,1.2544,1.13459644497,1.80078
2021-07-01T07:36:32Z,13.17528,15.33388,0.0,98.23965,0,1156,0.9211999,17.48864,2.2932,43690,0.0,1004.761,0.0,1.196,1002.96,0,95.3906289965,15.5,134.7637,0.8035999,0.833753831953,1.80078
2021-07-01T07:51:31Z,13.18726,15.53867,0.0,98.51342,0,1156,0.6076,17.16105,1.8228,43690,0.0,1004.761,0.0,1.078,1002.96,0,89.1831186896,15.54,157.1047,0.7644,0.715457969231,1.80078
2021-07-01T08:06:31Z,13.19373,15.61326,0.0,98.5933,0,1156,1.2544,16.88542,1.862,43690,0.0,1005.068,0.0,1.47,1003.267,0,103.945960158,15.38,123.9149,0.6468,0.684028395266,1.80078
2021-07-01T08:21:31Z,13.20123,16.22814,0.0004820386,98.73797,0,1156,3.332,16.6866,3.2732,43690,0.0337427,1005.068,2.410193e-06,2.881,1003.267,0,116.45145098,16.53,115.7016,2.0188,1.98145561953,1.80078
2021-07-01T08:36:31Z,13.19589,16.13107,0.005784463,98.74597,0,1156,2.5872,16.6369,3.9004,43690,0.4049124,1005.068,2.892232e-05,3.45,1003.267,0,114.880279058,16.3,114.2919,3.0576,3.05481656805,1.80078
2021-07-01T08:51:31Z,13.20179,15.65714,0.012533,98.71266,0,1156,3.5672,16.58719,3.724,43690,0.8773102,1005.068,6.266501e-05,3.234,1003.267,0,111.995720552,15.79,112.2001,2.8616,2.88862248521,1.80078
2021-07-01T09:06:32Z,13.2018,15.18291,0.02458397,98.64495,0,1156,3.822,16.48779,4.5276,43690,1.720878,1004.606,0.0001229198,3.802,1002.805,0,111.095575842,15.32,113.8357,3.4496,3.44855621302,1.80078
2021-07-01T09:21:32Z,13.2018,15.11516,0.05688055,98.78046,0,1156,4.3904,16.36353,4.802,43690,3.981639,1004.606,0.0002844027,4.802,1002.805,0,113.707163852,15.18,116.3851,4.0964,4.0690295858,1.80078
2021-07-01T09:36:33Z,13.2018,15.21679,0.05398832,98.78046,0,1156,3.2732,16.36353,4.8412,43690,3.779182,1004.606,0.0002699416,4.096,1002.805,0,117.346001356,15.35,111.2622,3.7436,3.75554556213,1.80078
2021-07-01T09:51:33Z,13.2018,15.01353,0.02699416,98.78046,0,1156,2.3912,16.43808,3.8612,43690,1.889591,1004.606,0.0001349708,2.901,1002.805,0,115.225125696,15.18,113.2825,2.8812,2.82089230769,1.80078
2021-07-01T10:06:33Z,13.2018,14.91191,0.03470678,98.81433,0,1156,3.0184,16.48779,3.7436,43690,2.429474,1005.744,0.0001735339,3.469,1003.943,0,112.268126464,15.01,114.3889,2.646,2.61445443787,1.80078
2021-07-01T10:21:33Z,13.2018,15.14903,0.02217377,98.84821,0,1156,4.0964,16.48779,4.4884,43690,1.552164,1005.744,0.0001108689,4.41,1003.943,0,114.82526857,15.25,111.166,3.3124,3.38013017751,1.80078
2021-07-01T10:36:33Z,13.2018,15.14903,0.02410193,98.84821,0,1156,3.2144,16.51264,4.2924,43690,1.687135,1005.744,0.0001205096,3.744,1003.943,0,118.878238737,15.28,116.4813,3.5476,3.51709822485,1.80078
2021-07-01T10:51:33Z,13.2018,15.21679,0.02554804,98.91595,0,1156,4.6256,16.51264,5.8408,43690,1.788363,1005.744,0.0001277402,4.508,1003.943,0,116.099631387,15.25,120.979,3.626,3.64884733728,1.80078
2021-07-01T11:06:33Z,13.2018,15.18291,0.04338347,98.9837,0,1156,3.8024,16.53749,5.978,43690,3.036843,1005.744,0.0002169173,4.39,1003.943,0,112.911224582,15.28,115.856,3.6456,3.77271005917,1.80078
2021-07-01T11:21:33Z,13.2018,15.11516,0.0337427,98.9837,0,1156,4.0964,16.58719,5.2136,43690,2.361989,1005.744,0.0001687135,4.547,1003.943,0,111.259960891,15.18,110.5166,3.7828,3.82594319527,1.80078
2021-07-01T11:36:38Z,13.2018,14.97966,0.03759901,99.01758,0,1156,3.5476,16.58719,4.5668,43690,2.631931,1005.744,0.000187995,3.9,1003.943,0,111.765640942,15.01,109.2659,3.8416,3.83814117647,1.80078
2021-07-01T11:51:34Z,13.20731,15.28453,0.04964997,99.05146,0,1156,4.41,16.58719,5.4488,43690,3.475498,1005.744,0.0002482498,5.253,1003.943,0,110.553343555,15.15,112.2002,3.9592,4.0572,1.80078
2021-07-01T12:06:36Z,13.2018,15.04734,0.06266502,99.05134,0,1156,3.9396,16.6369,5.292,43690,4.386551,1006.798,0.0003133251,3.469,1004.997,0,114.732262993,15.01,116.2888,3.528,3.60036923077,1.80078
2021-07-01T12:21:37Z,13.2018,15.28451,0.06362909,99.08529,0,1156,3.528,16.6866,4.1748,43690,4.454036,1006.798,0.0003181454,3.352,1004.997,0,118.476677313,15.35,118.4054,3.2536,3.25533964497,1.80078
2021-07-01T12:36:39Z,13.20144,15.21432,0.08194656,99.08091,0,1156,3.6064,16.76116,6.4092,43690,5.736259,1006.798,0.0004097328,4.214,1004.997,0,119.209822706,15.38,112.2673,3.2732,3.28224615385,1.80078
2021-07-01T12:51:41Z,13.20126,15.04422,0.07423394,99.11346,0,1156,2.1168,16.86056,4.1748,43690,5.196376,1006.798,0.0003711697,2.372,1004.997,0,110.738358065,15.18,110.7266,2.3912,2.4400260355,1.80078
2021-07-01T13:06:37Z,13.19986,15.0422,0.1176174,99.1437,0,1156,3.2732,16.91027,4.312,43690,8.233219,1006.107,0.0005880871,3.528,1004.306,0,116.112842875,15.21,110.0492,2.4206,2.44848333333,1.80078
2021-07-01T13:21:37Z,13.19969,14.90381,0.0800157,99.07074,0,1156,4.8804,16.98482,5.7232,43690,5.6011,1006.107,0.0004000785,5.468,1004.306,0,119.140466551,15.07,114.1796,4.2924,4.23557159763,1.80078
2021-07-01T13:36:39Z,13.19959,14.76792,0.1070102,99.10385,0,1156,4.2728,16.95997,6.1152,43690,7.490712,1006.107,0.0005350508,4.782,1004.306,0,114.964416585,14.9,107.7339,4.606,4.6196852071,1.80078
2021-07-01T13:51:38Z,13.1997,14.76826,0.1050844,99.10447,0,1156,2.842,16.95997,5.5664,43690,7.355906,1006.107,0.0005254218,4.449,1004.306,0,118.303398672,14.77,137.049,4.1748,4.21550769231,1.80078
2021-07-01T14:06:38Z,13.19441,14.70098,0.1079763,99.1053,0,1156,3.7044,17.01194,5.096,43690,7.558338,1006.734,0.0005398813,5.096,1004.934,0,117.402739038,14.8,119.4229,3.7632,3.72005680473,1.80078
2021-07-01T14:21:38Z,13.19416,14.76947,0.1243638,99.14053,0,1156,4.5472,17.08649,6.1936,43690,8.705466,1006.734,0.000621819,5.41,1004.934,0,116.894785891,15.01,113.0036,4.0572,4.16772544379,1.80078
2021-07-01T14:36:39Z,13.18854,14.93572,0.2665601,99.1688,0,1156,5.2332,17.26045,6.468,43690,18.6592,1006.734,0.0013328,6.194,1004.934,0,115.423752349,14.94,114.5362,4.7432,4.7391408284,1.80078
2021-07-01T14:51:41Z,13.17557,15.57306,0.4067942,99.25937,0,1156,4.0572,17.71682,6.4288,43690,28.4756,1006.734,0.002033971,4.763,1004.934,0,114.541132188,15.54,119.7652,5.194,5.03533924051,1.80078
2021-07-01T15:07:45Z,13.15322,15.43522,0.3315796,99.11966,0,1156,4.5276,18.53241,6.1348,43690,23.21057,1006.957,0.001657898,5.9,1005.157,0,118.187605252,15.5,118.2694,4.3708,4.41034792899,1.80078
2021-07-01T15:22:45Z,13.1477,15.84155,0.3074382,99.15345,0,1156,3.7632,19.04978,5.4292,43690,21.52067,1006.957,0.001537191,5.037,1005.157,0,114.408437669,15.84,114.4464,4.3414,4.30233802817,1.80078
2021-07-01T15:37:42Z,13.14219,16.01086,0.6062003,99.05186,0,1156,3.332,19.49485,4.7432,43690,42.43402,1006.957,0.003031001,4.253,1005.157,0,114.246449785,16.01,112.4267,3.7436,3.64530746269,1.80078
2021-07-01T15:52:43Z,13.12175,16.33228,0.3912835,98.85231,0,1156,4.3904,20.31496,5.586,43690,27.38984,1006.957,0.001956417,5.018,1005.157,0,111.636268325,16.43,112.3443,4.3512,4.28196213018,1.80078
2021-07-01T16:07:43Z,13.11018,16.60126,0.52898,98.67982,0,1156,4.214,20.85266,5.5076,43690,37.0286,1006.461,0.0026449,5.135,1004.66,0,113.967594613,16.6,111.3071,4.5668,4.54511242604,1.80078
2021-07-01T16:22:44Z,13.09914,16.77049,0.7167956,98.17199,0,1156,4.6452,21.61628,6.4288,43690,50.17569,1006.461,0.003583978,6.429,1004.66,0,115.213278003,16.94,118.0129,4.802,4.77764497041,1.80078
2021-07-01T16:37:45Z,13.08811,16.9059,0.3670659,97.42724,0,1156,3.7828,22.25113,5.7624,43690,25.69461,1006.461,0.001835329,5.39,1004.66,0,110.931602495,17.01,114.648,4.1944,4.16633372781,1.80078
2021-07-01T16:52:45Z,13.08531,16.38981,0.4301704,96.80362,0,1156,3.5672,22.41832,5.5468,43690,30.11193,1006.461,0.002150852,4.214,1004.66,0,115.272950363,16.49,114.7272,4.116,4.08839763314,1.80078
2021-07-01T17:07:45Z,13.09156,16.14985,0.3632122,96.1215,0,1156,4.4492,22.25113,5.9388,43690,25.42485,1006.609,0.001816061,4.43,1004.808,0,119.745095761,16.32,121.5216,4.1748,4.07401656805,1.80078
2021-07-01T17:22:46Z,13.09895,16.87138,0.5038726,95.32727,0,1156,4.41,21.94614,7.3304,43690,35.27108,1006.609,0.002519363,6.272,1004.808,0,115.058254181,17.04,114.0698,5.1548,5.05366863905,1.80078
2021-07-01T17:37:47Z,13.09362,18.49693,0.9460859,93.19563,0,1156,3.626,22.14043,6.487599,43690,66.22601,1006.609,0.00473043,5.37,1004.808,0,112.219153092,18.5,111.307,4.2532,4.19358815976,1.80078
2021-07-01T17:52:43Z,13.06954,18.38504,0.5876908,86.37602,0,1156,4.9,22.92439,5.9584,43690,41.13836,1006.609,0.002938454,5.527,1004.808,0,116.059083981,18.52,114.3152,4.606,4.59783333333,1.80078
2021-07-01T18:07:48Z,13.05708,19.0884,0.7143815,82.43948,0,1156,4.4688,23.55246,6.3504,43690,50.00671,1007.487,0.003571908,5.39,1005.686,0,113.194060499,19.22,109.6154,4.8412,4.79877176471,1.80078
2021-07-01T18:22:48Z,13.05615,17.9696,0.5514783,86.22683,0,1156,4.8216,24.16021,7.3892,43690,38.60348,1007.487,0.002757391,6.86,1005.686,0,113.439128057,18.14,119.9433,4.2924,4.57155501775,1.80078
2021-07-01T18:37:48Z,13.05062,18.71407,0.314955,85.34691,0,1156,3.9788,24.33416,5.4292,43690,22.04685,1007.487,0.001574775,4.508,1005.686,0,114.020697471,18.95,108.6264,3.9004,3.91582485207,1.80078
2021-07-01T18:52:48Z,13.05613,18.5787,0.2494557,84.87313,0,1156,4.5472,24.36354,6.4484,43690,17.4619,1007.487,0.001247278,5.645,1005.686,0,114.516925046,18.71,108.4102,4.1356,4.28532544379,1.80078
2021-07-01T19:07:47Z,13.05613,18.51102,0.2658521,86.63286,0,1156,1.96,24.18957,4.5864,43690,18.60964,1008.075,0.00132926,0.804,1006.274,0,109.733779474,18.65,60.88462,2.5676,2.3300804716,1.80078
2021-07-01T19:22:48Z,13.06164,21.18446,0.4989692,85.07618,0,1156,2.7244,23.86876,5.6644,43690,34.92785,1008.075,0.002494846,5.664,1006.274,0,81.024972366,21.25,64.80104,1.8424,1.98911005266,1.80078
2021-07-01T19:37:48Z,13.05613,20.77837,0.2273315,84.46704,0,1156,4.0572,24.04272,6.762,43690,15.91321,1008.075,0.001136658,5.664,1006.274,0,64.297507875,21.02,59.9716,3.3908,3.5368142,1.80078
2021-07-01T19:52:48Z,13.06164,20.40612,0.3120993,85.14386,0,1156,2.8616,23.78291,6.3112,43690,21.84695,1008.075,0.001560497,5.606,1006.274,0,68.481665445,20.51,72.1293,4.2532,4.12945325444,1.80078
2021-07-01T20:07:47Z,13.06715,20.40612,0.3082649,83.82406,0,1156,6.1152,23.43724,7.271599,43690,21.57854,1007.994,0.001541325,5.116,1006.193,0,65.0231925482,20.41,62.15806,3.8612,3.96128756805,1.80078
2021-07-01T20:22:49Z,13.07267,20.00178,0.2553074,83.92804,0,1156,3.3712,23.15258,7.154,43690,17.87152,1007.994,0.001276537,5.214,1006.193,0,67.9386458496,20.17,75.18294,3.7044,3.7721301716,1.80078
2021-07-01T20:37:46Z,13.07957,19.90716,0.1907585,83.39618,0,1156,2.6264,22.81143,5.3116,43690,13.3531,1007.994,0.0009537926,2.156,1006.193,0,73.6628977792,20.04,70.76998,2.254,2.4252666625,1.80078
2021-07-01T20:52:47Z,13.08588,19.26498,0.1507763,82.65282,0,1156,2.5676,22.53128,5.7036,43690,10.55434,1007.994,0.0007538816,5.704,1006.193,0,67.5712888624,19.3,47.48509,2.2932,2.44234556095,1.80078
2021-07-01T21:07:47Z,13.08577,19.46759,0.158002,81.77216,0,1156,0.7056,22.25113,4.3904,43690,11.06014,1008.318,0.00079001,2.901,1006.517,0,69.6161172016,19.5,39.53055,1.9208,1.88299171065,1.80078
2021-07-01T21:22:48Z,13.09276,18.83234,0.2254419,82.32465,0,1156,1.1172,21.91903,7.252,43690,15.78093,1008.318,0.001127209,3.861,1006.517,0,66.292345391,18.9,62.10366,2.4892,2.67499408166,1.80078
2021-07-01T21:37:50Z,13.0991,18.36145,0.1156112,82.66744,0,1156,3.3712,21.58692,6.487599,43690,8.092786,1008.318,0.0005780561,5.468,1006.517,0,64.5139823359,18.5,72.56217,2.8028,2.87006626568,1.80078
2021-07-01T21:52:49Z,13.11568,17.85374,0.1136844,84.0555,0,1156,2.2344,21.09666,6.8012,43690,7.957906,1008.318,0.0005684218,6.174,1006.517,0,64.3933789749,17.96,67.3947,2.9596,3.02582248343,1.80078
2021-07-01T22:07:50Z,13.12119,17.54907,0.08767266,82.83681,0,1156,3.4692,20.58381,6.8404,43690,6.137086,1009.627,0.0004383632,6.37,1007.827,0,65.7572321081,17.65,61.98678,2.646,2.72370414024,1.80078
2021-07-01T22:22:49Z,13.13222,17.3121,0.06938178,82.43058,0,1156,4.0964,20.15455,7.742,43690,4.856724,1009.627,0.0003469089,7.742001,1007.827,0,67.5126466247,17.45,55.59342,2.1364,2.41464313464,1.80078
2021-07-01T22:37:51Z,13.14324,17.04129,0.07131748,83.4123,0,1156,0.196,19.73207,6.664,43690,4.992223,1009.627,0.0003565874,4.998,1007.827,0,65.3524243083,17.11,128.9008,3.2732,3.3551952645,1.80078
2021-07-01T22:52:48Z,13.15139,16.77869,0.03855008,84.33852,0,1156,2.0384,19.31185,5.586,43690,2.698505,1009.627,0.0001927504,4.782,1007.827,0,73.1304657258,16.85,45.76965,2.156,2.20336666429,1.80078
2021-07-01T23:07:50Z,13.15866,16.58598,0.02216629,85.81022,0,1156,1.7444,18.94585,5.8212,43690,1.551641,1010.501,0.0001108315,3.136,1008.7,0,83.9237699478,16.59,67.32073,1.862,2.08809999583,1.80078
2021-07-01T23:22:52Z,13.16976,16.07857,0.0240938,87.5381,0,1156,2.6264,18.55952,5.4488,43690,1.686566,1010.501,0.000120469,5.076,1008.7,0,63.7044828541,16.21,69.05248,2.646,2.67221064852,1.80078
2021-07-01T23:37:50Z,13.17527,15.94311,0.01060163,86.82696,0,1156,0.6468,18.2003,5.6644,43690,0.7421141,1010.501,5.300815e-05,4.586,1008.7,0,69.3963642723,16.11,169.6979,1.9992,2.20814999702,1.80078
2021-07-01T23:52:51Z,13.17527,15.87538,0.002409745,86.55605,0,1156,0.0784,17.86819,7.056,43690,0.1686822,1010.501,1.204873e-05,4.43,1008.7,0,84.3874348738,15.88,120.2648,1.2544,1.72748332917,1.80078
2021-07-02T00:07:50Z,13.1863,15.60447,0.00144591,87.30106,0,1156,1.0388,17.58804,3.626,43690,0.1012137,1011.181,7.22955e-06,2.234,1009.38,0,87.4113937093,15.67,56.71826,0.9015999,1.07449999226,1.80078
2021-07-02T00:22:53Z,13.19181,15.36836,0.0004819728,87.74277,0,1156,1.7444,17.36212,3.5868,43690,0.0337381,1011.181,2.409864e-06,2.92,1009.38,0,76.9158585194,15.54,53.04052,1.2936,1.46721656272,1.80078
2021-07-02T00:37:53Z,13.19818,15.27135,0.0,87.75004,0,1156,3.3124,17.13619,3.9984,43690,0.0,1011.181,0.0,2.92,1009.38,0,79.8029917545,15.41,44.98958,1.1956,1.44223332857,1.80078
2021-07-02T00:52:50Z,13.19943,15.27778,0.0,86.1683,0,1156,3.3516,16.93512,3.5868,43690,0.0,1011.181,0.0,3.548,1009.38,0,72.6692695107,15.35,67.38401,1.9012,1.93561666369,1.80078
2021-07-02T01:07:52Z,13.20118,15.21378,-0.0004820385,86.51289,0,1156,1.5288,16.7363,3.9396,43690,0.0,1011.778,-2.410193e-06,1.94,1009.977,0,78.2124217648,15.25,37.75878,1.1466,1.28659999345,1.80078
2021-07-02T01:22:52Z,13.20722,14.97956,0.0,86.82231,0,1156,2.5676,16.58719,5.0568,43690,0.0,1011.778,0.0,4.253,1009.977,0,67.3672306697,15.01,51.63844,2.058,2.07713332976,1.80078
2021-07-02T01:37:53Z,13.20731,14.87803,0.0,87.56772,0,1156,1.1956,16.38838,5.4488,43690,0.0,1011.778,0.0,5.194,1009.977,0,66.1694786794,14.88,60.7781,2.4696,2.5679499994,1.80078
2021-07-02T01:52:53Z,13.21283,14.60703,-0.0004820386,88.68561,0,1156,1.9404,16.24153,5.8016,43690,0.0,1011.778,-2.410193e-06,3.998,1009.977,0,61.6815060732,14.71,61.16292,2.4304,2.58476449467,1.80078
2021-07-02T02:07:56Z,13.21835,14.43765,0.0,89.26149,0,1156,0.0392,15.99527,5.0568,43690,0.0,1011.597,0.0,1.744,1009.797,0,69.256651291,14.51,85.52707,1.6072,1.88310768521,1.80078
2021-07-02T02:22:52Z,13.21835,14.20052,0.0,89.12598,0,1156,2.7048,15.79872,5.096,43690,0.0,1011.597,0.0,4.704,1009.797,0,70.3657329448,14.4,70.30248,1.6856,1.7721666625,1.80078
2021-07-02T02:37:54Z,13.21283,14.0989,0.0,89.39698,0,1156,2.2736,15.67672,4.0572,43690,0.0,1011.597,0.0,4.057,1009.797,0,68.6479005132,14.23,71.36075,2.0384,1.96429111834,1.80078
2021-07-02T02:52:55Z,13.22386,14.0989,0.0,89.66799,0,1156,2.6068,15.55471,4.1552,43690,0.0,1011.597,0.0,4.057,1009.797,0,69.5591588053,14.1,69.22016,1.7444,1.95072189172,1.80078
2021-07-02T03:07:58Z,13.21835,13.8279,0.0,89.90512,0,1156,3.7436,15.40786,6.9188,43690,0.0,1012.004,0.0,5.684,1010.203,0,68.9704488956,13.96,73.28486,3.0772,3.33803076923,1.80078
2021-07-02T03:22:55Z,13.22938,13.79402,-0.0004820386,88.78723,0,1156,2.6068,15.23842,5.2332,43690,0.0,1012.004,-2.410193e-06,4.782,1010.203,0,70.0943682563,13.86,66.64666,3.3222,3.33853333333,1.80078
2021-07-02T03:37:56Z,13.22386,13.69344,0.0,88.82285,0,1156,2.6068,15.14128,4.9588,43690,0.0,1012.004,0.0,3.744,1010.203,0,72.6782808593,13.86,71.96344,2.744,2.85243786982,1.80078
2021-07-02T03:52:57Z,13.23535,13.65998,0.0,89.19616,0,1156,1.9992,15.02153,4.4884,43690,0.0,1012.004,0.0,3.587,1010.203,0,72.7518726462,13.69,82.95581,2.5872,2.62767573964,1.80078
2021-07-02T04:07:55Z,13.23504,13.6604,-0.0004820386,88.92586,0,1156,1.7444,14.89953,4.1944,43690,0.0,1012.532,-2.410193e-06,3.626,1010.732,0,70.1974423626,13.69,64.82102,2.1364,2.31152426036,1.80078
2021-07-02T04:22:59Z,13.24085,13.5597,0.0,88.52086,0,1156,1.176,14.80465,4.8412,43690,0.0,1012.532,0.0,1.627,1010.732,0,72.404296874,13.66,76.55987,2.4206,2.43708705824,1.80078
2021-07-02T04:37:58Z,13.24051,13.49238,0.0,88.69098,0,1156,2.842,14.73235,4.0964,43690,0.0,1012.532,0.0,3.312,1010.732,0,70.6980988189,13.63,71.77397,2.45,2.45255147929,1.80078
2021-07-02T04:52:57Z,13.24662,13.38845,0.0,88.85654,0,1156,1.666,14.6352,4.2728,43690,0.0,1012.532,0.0,2.881,1010.732,0,72.9649237672,13.56,78.45732,2.3128,2.46124970414,1.80078
2021-07-02T05:07:55Z,13.24599,13.42175,0.0,88.88946,0,1156,1.764,14.56291,3.8808,43690,0.0,1012.419,0.0,2.705,1010.618,0,71.8801080842,13.52,71.60174,2.1168,2.18197869822,1.80078
2021-07-02T05:22:55Z,13.24597,13.28703,0.0,89.36502,0,1156,2.744,14.54031,4.116,43690,0.0,1012.419,0.0,3.626,1010.618,0,71.6552471309,13.42,74.29661,2.5088,2.56968757396,1.80078
2021-07-02T05:38:00Z,13.24612,13.18617,0.0,90.14547,0,1156,2.3912,14.46801,4.3316,43690,0.0,1012.419,0.0,4.096,1010.618,0,70.6202305091,13.36,71.09873,2.2736,2.28005647059,1.80078
2021-07-02T05:52:59Z,13.24719,13.15234,0.0,90.72145,0,1156,3.8416,14.34828,5.7624,43690,0.0,1012.419,0.0,4.312,1010.618,0,73.211353283,13.19,74.73069,2.7832,3.06386272189,1.80078
2021-07-02T06:07:58Z,13.2464,13.25801,0.0,90.66058,0,1156,2.5088,14.30083,4.508,43690,0.0,1012.226,0.0,2.626,1010.425,0,72.2752402301,13.23,71.99419,2.1364,2.18232662663,1.80078
2021-07-02T06:22:56Z,13.25366,13.16181,0.0,91.27974,0,1156,1.9404,14.22854,3.9396,43690,0.0,1012.226,0.0,3.94,1010.425,0,71.2363858675,13.13,66.68504,2.1168,2.17362840237,1.80078
2021-07-02T06:37:57Z,13.26047,13.09721,0.0,91.2513,0,1156,3.6456,14.1585,4.0572,43690,0.0,1012.226,0.0,4.057,1010.425,0,71.3449829935,13.13,68.95048,2.0384,2.10891360947,1.80078
2021-07-02T06:52:57Z,13.25542,13.0309,-0.0004821199,90.98272,0,1156,2.4892,14.13365,5.0764,43690,0.0,1012.226,-2.410599e-06,3.136,1010.425,0,66.906695337,13.17,73.16264,2.254,2.24263431834,1.80078